Simultaneous Nadir Overpasses (SNOs) Predictions

Prediction of SNOs between GOES-17 and METOP-C Satellite Orbit:

Table of predicted SNOs for the next 14.0 days since TLE Epoch: 7/25/2025
Index Date Time (GOES-17) GOES-17 Lat,Lon METOP-C Lat,Lon Distance(km) Time Diff (sec)
1 07/27/2025 03:46:32 0.01, -89.48 -0.89, -93.36 443.17 80
2 07/28/2025 03:23:12 0.02, -89.49 0.25, -88.37 126.56 80
3 07/29/2025 15:44:44 -0.01, -89.51 0.74, -92.93 389.48 80
4 07/30/2025 15:21:24 -0.02, -89.52 -0.40, -87.94 180.22 80
5 08/01/2025 03:43:04 0.00, -89.51 -0.66, -92.52 343.58 80
6 08/02/2025 03:19:44 0.01, -89.51 0.48, -87.53 226.55 80
7 08/03/2025 15:41:14 0.01, -89.54 0.56, -92.08 288.89 80
8 08/04/2025 15:17:55 -0.01, -89.55 -0.58, -87.09 280.89 80
9 08/06/2025 03:39:33 -0.01, -89.54 -0.51, -91.66 242.96 80
10 08/07/2025 03:16:14 0.00, -89.55 0.63, -86.67 327.21 80
11 08/08/2025 15:37:45 0.01, -89.58 0.35, -91.23 187.71 80
